STARLINK-31840, 60127

Orbit data source: Space-Track

STARLINK-31840, 60127 is a payload satellite owned by SpaceX/Seattle (US) in LEO that was launched on Mon, 24 Jun 2024 UTC via an FALCON 9 launch vehicle from the Air Force Western Test Range (AFWTR). Payload-class satellites include a variety of spacecraft equipped with specific instruments for various scientific and technological missions. These include communications satellites like Starlink; space stations such as the ISS; scientific satellites like the Hubble; Earth observation satellites from companies like Planet Labs, Umbra, and HawkEye 360; GPS; miniature CubeSats for education and research; and military/defense satellites.

Loading next visibility...
Identifier
60127, 2024-118Q
Orbit
LEO
Country
Flag of USUS
Related business
Manufacturer
SpaceX/Seattle
Mission
Operational Commercial Communications
Bus & Motor
STARLINK V2M, Unknown motor
Mass
730 kg wet, ~700 kg dry
Launch date (UTC)
2024-06-24 (1 year ago)
Launch vehicle
FALCON 9
Launch site
Air Force Western Test Range (AFWTR)
Object type
Payload
Rocket body
Debris
Shape & HBR
Box + 2 Pan, 17.7 m
Radar Cross Section
33.884 m², Large (>1 m²)

Expand to show TLE details & history
Last TLE update: 11 hours ago

TLE from 11 hours ago
0 STARLINK-31840
1 60127U 24118Q   25310.81824784  .00004067  00000-0  14936-3 0  9998
2 60127  53.1609 237.4876 0001446  84.7003 275.4163 15.30202065 76887
Epoch: 2025-11-06T19:38Z
TLE epoch observation values (Epoch: 2025-11-06T19:38:16.613Z)
Latitude
0.00001°
Longitude
-103.35273°
Altitude
476.015 km
Speed
7.629 km/s
True Right ascension
15h 49m 57s
True Declination
0° 00' 00"
Sunlit
Object was in daylight at epoch
Visualization orbit readout
Latitude
Unknown
Longitude
Unknown
Altitude
Unknown
Speed
Unknown
Apparent Right ascension
Unknown
Apparent Declination
Unknown
Sunlit
N/A
Visualization observer readout
Local Sidereal Time
02:37:17
Azimuth
Unknown
Elevation
Unknown
Doppler factor
Unknown
Orbital elements
Apogee altitude
476.456 km
Perigee altitude
474.474 km
Semi-major axis
6,853.602 km
Eccentricity
0.00014
Inclination
53.1609°
RAAN
237.4876°
Arg. of periapsis
84.7003°
True anomaly
275.3998°
Mean anomaly
275.4163°
Eccentric anomaly
275.40805°
Mean motion
3.82529 °/min
Orbital period
94.11 mins
BSTAR
0.00014936
Loading maneuver chart data...
Computing Atmospheric mass density...
Loading historical data...
Loading historical data...
Loading historical data...
Loading historical data...
Loading historical data...
Loading historical data...
Loading historical data...

Documentation

Showing up to 5 results
|